SANTA FE DAM CA US current weather conditions

sailwx.info

Wind from 246 at 5 knots gusting 11

Air temperature 20.0° C
Dewpoint 9.3° C

Last reported at 2015-May-07 00:57 UTC.
Time now 2015-May-07 02:37 UTC

Location: N 34°08' W 117°57'.
View on Google Maps.

See reports from other nearby stations

  
Tides and Currents Weather Stations Pressure Air Temp Water Temp Dewpoint Dewpoint Depression Visibility Wind Speed Wind Dir Waves Ship Positions
date/time (UTC)wind fromknots sea level pressurealtimeterstation pressurevisibilityair tempwater tempwave heightnotes
2015-May-07 00:57 246 5 gusting 11 20.0
2015-May-06 23:57 232 6 gusting 11 20.0
2015-May-06 22:57 266 5 gusting 11 20.0
2015-May-06 21:57 269 3 gusting 11 20.6
2015-May-06 20:57 255 5 gusting 11 20.0
2015-May-06 19:57 244 3 gusting 10 20.0
2015-May-06 18:57 315 2 gusting 7 20.0
2015-May-06 17:57 319 2 gusting 7 20.6
2015-May-06 16:57 168 3 gusting 6 17.8
2015-May-06 15:57 164 1 gusting 3 17.8
2015-May-06 14:57 244 1 gusting 5 15.6
2015-May-06 13:57 017 2 gusting 4 15.0
2015-May-06 12:57 017 0 gusting 2 14.4
2015-May-06 11:57 215 1 gusting 1 14.4
2015-May-06 10:57 14.4
2015-May-06 09:57 141 0 gusting 2 15.0
2015-May-06 08:57 071 0 gusting 2 13.9
2015-May-06 07:57 038 1 gusting 2 12.8
2015-May-06 06:57 204 1 gusting 3 12.2
2015-May-06 05:57 240 2 gusting 5 13.3
2015-May-06 04:57 251 3 gusting 6 14.4
2015-May-06 03:57 239 3 gusting 8 15.0
2015-May-06 02:57 218 4 gusting 9 17.2
2015-May-06 01:57 232 6 gusting 11 18.9
2015-May-06 00:57 265 6 gusting 10 20.6
2015-May-05 23:57 253 6 gusting 13 21.7
2015-May-05 22:57 244 6 gusting 13 21.1
2015-May-05 21:57 221 6 gusting 13 21.7
2015-May-05 20:57 243 5 gusting 11 22.8
2015-May-05 19:57 240 4 gusting 11 21.7
2015-May-05 18:57 204 3 gusting 8 20.6
2015-May-05 17:57 260 4 gusting 7 18.9
2015-May-05 16:57 235 3 gusting 6 18.9
2015-May-05 15:57 194 0 gusting 4 17.2
2015-May-05 14:57 220 1 gusting 3 15.6
2015-May-05 13:57 230 0 gusting 4 15.6
2015-May-05 12:57 257 1 gusting 4 15.6
2015-May-05 11:57 201 1 gusting 2 15.6
2015-May-05 10:57 143 1 gusting 6 15.6
2015-May-05 09:57 135 2 gusting 6 15.6
2015-May-05 08:57 018 1 gusting 4 15.0
2015-May-05 07:57 009 0 gusting 2 12.2
2015-May-05 06:57 200 1 gusting 4 12.2
2015-May-05 05:57 202 3 gusting 4 12.8
2015-May-05 04:57 205 2 gusting 6 13.9
2015-May-05 03:57 230 4 gusting 10 15.6
2015-May-05 02:57 225 6 gusting 11 16.1